• In Denmark
  • List of Countries
  • For 7 days
  • Water Temperature
  • Satellite Maps
  • Weather Map
  • Weather Widgets
  • user-avatar
    Login

    Hourly Weather Mingachevir

    Today, 21 July, Saturday

    Time Temperature Precipitation Wind Pressure Humidity
    00:00 +30°C° 0.2 mm 3 mps 745 mmHg 64%
    01:00 +29°C° 0.1 mm 2 mps 745 mmHg 66%
    02:00 +29°C° 0.1 mm 1 mps 745 mmHg 69%
    03:00 +28°C° 0 mm 1 mps 745 mmHg 71%
    04:00 +28°C° 0.1 mm 1 mps 745 mmHg 69%
    05:00 +29°C° 0.1 mm 1 mps 746 mmHg 68%
    06:00 +29°C° 0.1 mm 1 mps 746 mmHg 67%
    07:00 +30°C° 0 mm 1 mps 746 mmHg 62%
    08:00 +31°C° 0 mm 2 mps 746 mmHg 56%
    09:00 +34°C° 0 mm 3 mps 746 mmHg 51%
    10:00 +35°C° 0 mm 3 mps 746 mmHg 47%
    11:00 +36°C° 0 mm 2 mps 745 mmHg 43%
    12:00 +37°C° 0 mm 2 mps 745 mmHg 39%
    13:00 +38°C° 0.1 mm 2 mps 745 mmHg 37%
    14:00 +39°C° 0.1 mm 2 mps 745 mmHg 35%
    15:00 +39°C° 0.1 mm 2 mps 745 mmHg 33%
    16:00 +39°C° 0.1 mm 2 mps 745 mmHg 34%
    17:00 +39°C° 0.1 mm 2 mps 745 mmHg 34%
    18:00 +38°C° 0.1 mm 2 mps 745 mmHg 35%
    19:00 +36°C° 0.4 mm 3 mps 745 mmHg 39%
    20:00 +34°C° 0.4 mm 3 mps 746 mmHg 44%
    21:00 +31°C° 0.4 mm 3 mps 747 mmHg 49%
    22:00 +30°C° 0.3 mm 3 mps 747 mmHg 52%
    23:00 +30°C° 0.3 mm 2 mps 747 mmHg 55%

    Tomorrow, 22 July, Sunday

    Time Temperature Precipitation Wind Pressure Humidity
    00:00 +29°C° 0.3 mm 2 mps 747 mmHg 58%
    01:00 +28°C° 0 mm 2 mps 747 mmHg 59%
    02:00 +28°C° 0 mm 1 mps 747 mmHg 60%
    03:00 +28°C° 0 mm 1 mps 747 mmHg 61%
    04:00 +28°C° 0 mm 1 mps 747 mmHg 60%
    05:00 +28°C° 0 mm 1 mps 747 mmHg 59%
    06:00 +29°C° 0 mm 1 mps 748 mmHg 59%
    07:00 +30°C° 0 mm 1 mps 747 mmHg 54%
    08:00 +31°C° 0 mm 2 mps 747 mmHg 50%
    09:00 +32°C° 0 mm 2 mps 747 mmHg 46%
    10:00 +34°C° 0.1 mm 2 mps 747 mmHg 43%
    11:00 +35°C° 0.1 mm 2 mps 747 mmHg 40%
    12:00 +36°C° 0.1 mm 2 mps 746 mmHg 37%
    13:00 +37°C° 0 mm 3 mps 746 mmHg 34%
    14:00 +38°C° 0 mm 3 mps 745 mmHg 32%
    15:00 +40°C° 0 mm 4 mps 745 mmHg 29%
    16:00 +40°C° 0 mm 4 mps 745 mmHg 30%
    17:00 +38°C° 0 mm 4 mps 745 mmHg 30%
    18:00 +39°C° 0 mm 5 mps 745 mmHg 30%
    19:00 +36°C° 0 mm 5 mps 745 mmHg 33%
    20:00 +34°C° 0 mm 5 mps 746 mmHg 37%
    21:00 +32°C° 0 mm 5 mps 746 mmHg 40%
    22:00 +32°C° 0 mm 4 mps 746 mmHg 43%
    23:00 +30°C° 0 mm 3 mps 746 mmHg 45%

    Day after tomorrow, 23 July, Monday

    Time Temperature Precipitation Wind Pressure Humidity
    00:00 +29°C° 0 mm 2 mps 746 mmHg 48%
    01:00 +29°C° 0 mm 2 mps 746 mmHg 50%
    02:00 +28°C° 0 mm 1 mps 746 mmHg 51%
    03:00 +27°C° 0 mm 1 mps 746 mmHg 52%
    04:00 +28°C° 0 mm 1 mps 746 mmHg 52%
    05:00 +28°C° 0 mm 1 mps 746 mmHg 51%
    06:00 +29°C° 0 mm 2 mps 746 mmHg 50%
    07:00 +30°C° 0 mm 2 mps 746 mmHg 46%
    08:00 +31°C° 0 mm 2 mps 746 mmHg 42%
    09:00 +34°C° 0 mm 2 mps 746 mmHg 38%
    10:00 +35°C° 0 mm 2 mps 745 mmHg 35%
    11:00 +36°C° 0 mm 2 mps 745 mmHg 32%
    12:00 +37°C° 0 mm 2 mps 744 mmHg 30%
    13:00 +38°C° 0 mm 2 mps 744 mmHg 28%
    14:00 +39°C° 0 mm 2 mps 743 mmHg 27%
    15:00 +39°C° 0 mm 3 mps 743 mmHg 26%
    16:00 +39°C° 0 mm 3 mps 743 mmHg 26%
    17:00 +39°C° 0 mm 3 mps 743 mmHg 26%
    18:00 +39°C° 0 mm 3 mps 743 mmHg 26%
    19:00 +37°C° 0 mm 3 mps 743 mmHg 29%
    20:00 +35°C° 0 mm 2 mps 744 mmHg 32%
    21:00 +34°C° 0 mm 2 mps 745 mmHg 35%
    22:00 +32°C° 0.1 mm 2 mps 745 mmHg 38%
    23:00 +31°C° 0.1 mm 2 mps 745 mmHg 41%

    24 July, Tuesday

    Time Temperature Precipitation Wind Pressure Humidity
    00:00 +30°C° 0.1 mm 2 mps 745 mmHg 44%
    01:00 +29°C° 0 mm 3 mps 745 mmHg 45%
    02:00 +29°C° 0 mm 3 mps 745 mmHg 47%
    03:00 +28°C° 0 mm 3 mps 745 mmHg 49%
    04:00 +28°C° 0 mm 3 mps 745 mmHg 49%
    05:00 +29°C° 0 mm 4 mps 745 mmHg 49%
    06:00 +29°C° 0 mm 4 mps 745 mmHg 49%
    07:00 +32°C° 0 mm 4 mps 745 mmHg 46%
    08:00 +33°C° 0 mm 5 mps 745 mmHg 42%
    09:00 +35°C° 0 mm 5 mps 745 mmHg 38%
    10:00 +36°C° 0 mm 4 mps 745 mmHg 35%
    11:00 +37°C° 0 mm 4 mps 744 mmHg 32%
    12:00 +39°C° 0 mm 3 mps 744 mmHg 30%
    13:00 +39°C° 0 mm 3 mps 744 mmHg 28%
    14:00 +40°C° 0 mm 2 mps 744 mmHg 27%
    15:00 +40°C° 0 mm 2 mps 744 mmHg 26%
    16:00 +40°C° 0 mm 2 mps 744 mmHg 26%
    17:00 +40°C° 0 mm 1 mps 744 mmHg 27%
    18:00 +40°C° 0 mm 1 mps 744 mmHg 27%
    19:00 +38°C° 0 mm 2 mps 745 mmHg 31%
    20:00 +36°C° 0 mm 2 mps 746 mmHg 35%
    21:00 +34°C° 0 mm 3 mps 746 mmHg 38%
    22:00 +33°C° 0 mm 3 mps 746 mmHg 41%
    23:00 +31°C° 0 mm 2 mps 746 mmHg 44%

    25 July, Wednesday

    Time Temperature Precipitation Wind Pressure Humidity
    00:00 +30°C° 0 mm 2 mps 747 mmHg 46%
    01:00 +30°C° 0 mm 2 mps 747 mmHg 47%
    02:00 +30°C° 0 mm 1 mps 747 mmHg 47%
    03:00 +29°C° 0 mm 1 mps 747 mmHg 48%
    04:00 +30°C° 0 mm 1 mps 747 mmHg 46%
    05:00 +30°C° 0 mm 1 mps 747 mmHg 45%
    06:00 +31°C° 0 mm 1 mps 747 mmHg 44%
    07:00 +32°C° 0 mm 1 mps 747 mmHg 40%
    08:00 +35°C° 0 mm 2 mps 747 mmHg 36%
    09:00 +37°C° 0 mm 2 mps 746 mmHg 32%
    10:00 +38°C° 0 mm 2 mps 746 mmHg 30%
    11:00 +39°C° 0 mm 2 mps 746 mmHg 28%
    12:00 +41°C° 0 mm 2 mps 745 mmHg 26%
    13:00 +41°C° 0 mm 2 mps 745 mmHg 25%
    14:00 +43°C° 0 mm 3 mps 744 mmHg 24%
    15:00 +44°C° 0 mm 3 mps 744 mmHg 23%
    16:00 +44°C° 0 mm 3 mps 744 mmHg 23%
    17:00 +43°C° 0 mm 4 mps 744 mmHg 24%
    18:00 +43°C° 0 mm 4 mps 744 mmHg 24%
    19:00 +41°C° 0 mm 4 mps 745 mmHg 28%
    20:00 +38°C° 0 mm 4 mps 746 mmHg 31%
    21:00 +36°C° 0 mm 4 mps 746 mmHg 34%
    22:00 +35°C° 0 mm 4 mps 746 mmHg 37%
    23:00 +34°C° 0 mm 3 mps 746 mmHg 40%

    26 July, Thursday

    Time Temperature Precipitation Wind Pressure Humidity
    00:00 +33°C° 0 mm 3 mps 746 mmHg 42%
    01:00 +31°C° 0 mm 2 mps 746 mmHg 44%
    02:00 +31°C° 0 mm 2 mps 746 mmHg 46%
    03:00 +30°C° 0 mm 1 mps 746 mmHg 47%
    04:00 +31°C° 0 mm 1 mps 746 mmHg 46%
    05:00 +31°C° 0 mm 1 mps 747 mmHg 45%
    06:00 +32°C° 0 mm 1 mps 747 mmHg 44%
    07:00 +33°C° 0 mm 1 mps 747 mmHg 40%
    08:00 +36°C° 0 mm 2 mps 747 mmHg 37%
    09:00 +37°C° 0 mm 2 mps 746 mmHg 33%
    10:00 +39°C° 0 mm 3 mps 746 mmHg 31%
    11:00 +40°C° 0 mm 3 mps 746 mmHg 30%
    12:00 +43°C° 0 mm 4 mps 745 mmHg 28%
    13:00 +43°C° 0 mm 4 mps 745 mmHg 27%
    14:00 +45°C° 0 mm 5 mps 745 mmHg 26%
    15:00 +46°C° 0 mm 5 mps 744 mmHg 25%
    16:00 +45°C° 0 mm 6 mps 744 mmHg 26%
    17:00 +44°C° 0 mm 7 mps 745 mmHg 26%
    18:00 +44°C° 0 mm 7 mps 745 mmHg 27%
    19:00 +41°C° 0 mm 6 mps 745 mmHg 29%
    20:00 +37°C° 0 mm 5 mps 746 mmHg 30%
    21:00 +35°C° 0 mm 4 mps 746 mmHg 32%
    22:00 +34°C° 0 mm 4 mps 746 mmHg 34%
    23:00 +34°C° 0 mm 3 mps 746 mmHg 37%
    Show more